Time,TemperatureF,DewpointF,PressureIn,WindDirection,WindDirectionDegrees,WindSpeedMPH,WindSpeedGustMPH,Humidity,HourlyPrecipIn,Conditions,Clouds,dailyrainin,SoftwareType,DateUTC
2013-03-28 00:00:00,37.7,29.0,30.32,WSW,257,0.0,0.0,70,0.00,,,0.00,weatherlink.com 1.10,2013-03-28 04:00:00,
2013-03-28 00:15:00,37.0,28.0,30.31,WSW,257,0.0,0.0,71,0.00,,,0.00,weatherlink.com 1.10,2013-03-28 04:15:00,
2013-03-28 00:30:00,36.5,28.0,30.31,WSW,257,0.0,0.0,72,0.00,,,0.00,weatherlink.com 1.10,2013-03-28 04:30:00,
2013-03-28 00:45:00,36.4,28.0,30.31,SE,134,0.0,1.0,72,0.00,,,0.00,weatherlink.com 1.10,2013-03-28 04:45:00,
2013-03-28 01:00:00,35.6,27.0,30.31,SE,134,0.0,0.0,72,0.00,,,0.00,weatherlink.com 1.10,2013-03-28 05:00:00,
2013-03-28 01:15:00,35.2,27.0,30.31,SE,134,0.0,1.0,73,0.00,,,0.00,weatherlink.com 1.10,2013-03-28 05:15:00,
2013-03-28 01:30:00,34.6,27.0,30.31,SE,134,0.0,1.0,75,0.00,,,0.00,weatherlink.com 1.10,2013-03-28 05:30:00,
2013-03-28 01:45:00,34.2,27.0,30.31,SE,134,0.0,0.0,75,0.00,,,0.00,weatherlink.com 1.10,2013-03-28 05:45:00,
2013-03-28 02:00:00,33.6,27.0,30.31,SE,134,0.0,0.0,76,0.00,,,0.00,weatherlink.com 1.10,2013-03-28 06:00:00,
2013-03-28 02:15:00,33.5,27.0,30.31,SE,134,0.0,0.0,76,0.00,,,0.00,weatherlink.com 1.10,2013-03-28 06:15:00,
2013-03-28 02:30:00,33.4,27.0,30.31,SE,134,0.0,0.0,76,0.00,,,0.00,weatherlink.com 1.10,2013-03-28 06:30:00,
2013-03-28 02:45:00,33.4,27.0,30.31,SE,134,0.0,0.0,76,0.00,,,0.00,weatherlink.com 1.10,2013-03-28 06:45:00,
2013-03-28 03:00:00,33.3,27.0,30.31,SE,134,0.0,0.0,76,0.00,,,0.00,weatherlink.com 1.10,2013-03-28 07:00:00,
2013-03-28 03:15:00,33.3,27.0,30.31,ESE,123,0.0,1.0,76,0.00,,,0.00,weatherlink.com 1.10,2013-03-28 07:15:00,
2013-03-28 03:30:00,33.4,27.0,30.30,ESE,123,0.0,0.0,76,0.00,,,0.00,weatherlink.com 1.10,2013-03-28 07:30:00,
2013-03-28 03:45:00,32.9,26.0,30.30,ESE,123,0.0,0.0,76,0.00,,,0.00,weatherlink.com 1.10,2013-03-28 07:45:00,
2013-03-28 04:00:00,32.6,26.0,30.31,ESE,123,0.0,0.0,77,0.00,,,0.00,weatherlink.com 1.10,2013-03-28 08:00:00,
2013-03-28 04:15:00,32.4,26.0,30.31,ESE,123,0.0,1.0,77,0.00,,,0.00,weatherlink.com 1.10,2013-03-28 08:15:00,
2013-03-28 04:30:00,32.3,26.0,30.30,ESE,123,0.0,0.0,77,0.00,,,0.00,weatherlink.com 1.10,2013-03-28 08:30:00,
2013-03-28 04:45:00,32.2,26.0,30.30,ESE,123,0.0,0.0,77,0.00,,,0.00,weatherlink.com 1.10,2013-03-28 08:45:00,
2013-03-28 05:00:00,31.9,25.0,30.30,ESE,122,0.0,0.0,77,0.00,,,0.00,weatherlink.com 1.10,2013-03-28 09:00:00,
2013-03-28 05:15:00,31.3,25.0,30.31,ESE,123,0.0,0.0,78,0.00,,,0.00,weatherlink.com 1.10,2013-03-28 09:15:00,
2013-03-28 05:30:00,31.2,25.0,30.32,ESE,123,0.0,0.0,79,0.00,,,0.00,weatherlink.com 1.10,2013-03-28 09:30:00,
2013-03-28 05:45:00,31.3,26.0,30.32,ESE,122,0.0,1.0,79,0.00,,,0.00,weatherlink.com 1.10,2013-03-28 09:45:00,
2013-03-28 06:00:00,31.4,25.0,30.33,ESE,123,0.0,0.0,78,0.00,,,0.00,weatherlink.com 1.10,2013-03-28 10:00:00,
2013-03-28 06:15:00,30.8,25.0,30.33,ESE,123,0.0,0.0,79,0.00,,,0.00,weatherlink.com 1.10,2013-03-28 10:15:00,
2013-03-28 06:31:00,30.7,25.0,30.33,ESE,122,0.0,1.0,79,0.00,,,0.00,weatherlink.com 1.10,2013-03-28 10:31:00,
2013-03-28 06:46:00,30.9,25.0,30.34,ESE,122,0.0,0.0,79,0.00,,,0.00,weatherlink.com 1.10,2013-03-28 10:46:00,
2013-03-28 07:01:00,30.2,24.0,30.34,ESE,123,0.0,0.0,79,0.00,,,0.00,weatherlink.com 1.10,2013-03-28 11:01:00,
2013-03-28 07:16:00,30.4,25.0,30.34,ESE,122,0.0,0.0,80,0.00,,,0.00,weatherlink.com 1.10,2013-03-28 11:16:00,
2013-03-28 07:31:00,30.1,25.0,30.35,ESE,122,0.0,0.0,80,0.00,,,0.00,weatherlink.com 1.10,2013-03-28 11:31:00,
2013-03-28 07:46:00,30.3,25.0,30.35,ESE,123,0.0,0.0,80,0.00,,,0.00,weatherlink.com 1.10,2013-03-28 11:46:00,
2013-03-28 08:16:00,31.0,26.0,30.36,ESE,122,0.0,0.0,80,0.00,,,0.00,weatherlink.com 1.10,2013-03-28 12:16:00,
2013-03-28 08:46:00,33.7,27.0,30.37,SW,215,1.0,1.0,77,0.00,,,0.00,weatherlink.com 1.10,2013-03-28 12:46:00,
2013-03-28 09:31:00,38.6,29.0,30.37,NW,309,2.0,2.0,68,0.00,,,0.00,weatherlink.com 1.10,2013-03-28 13:31:00,
2013-03-28 09:46:00,40.6,29.0,30.38,WNW,297,2.0,3.0,63,0.00,,,0.00,weatherlink.com 1.10,2013-03-28 13:46:00,
2013-03-28 10:01:00,42.5,29.0,30.38,NW,305,1.0,3.0,59,0.00,,,0.00,weatherlink.com 1.10,2013-03-28 14:01:00,
2013-03-28 10:16:00,44.3,29.0,30.38,NNE,20,1.0,3.0,56,0.00,,,0.00,weatherlink.com 1.10,2013-03-28 14:16:00,
2013-03-28 10:46:00,46.2,29.0,30.38,NW,319,2.0,4.0,51,0.00,,,0.00,weatherlink.com 1.10,2013-03-28 14:46:00,
2013-03-28 11:01:00,47.6,28.0,30.38,WNW,300,3.0,6.0,47,0.00,,,0.00,weatherlink.com 1.10,2013-03-28 15:01:00,
2013-03-28 11:16:00,48.8,29.0,30.39,NW,311,3.0,5.0,46,0.00,,,0.00,weatherlink.com 1.10,2013-03-28 15:16:00,
2013-03-28 11:31:00,49.2,29.0,30.39,NW,314,4.0,7.0,45,0.00,,,0.00,weatherlink.com 1.10,2013-03-28 15:31:00,
2013-03-28 11:46:00,50.6,29.0,30.39,WNW,297,2.0,6.0,43,0.00,,,0.00,weatherlink.com 1.10,2013-03-28 15:46:00,
2013-03-28 12:01:00,51.2,29.0,30.39,WNW,293,1.0,5.0,42,0.00,,,0.00,weatherlink.com 1.10,2013-03-28 16:01:00,
2013-03-28 12:16:00,52.0,28.0,30.38,WSW,252,3.0,6.0,40,0.00,,,0.00,weatherlink.com 1.10,2013-03-28 16:16:00,
2013-03-28 12:32:00,52.2,26.0,30.38,NW,314,2.0,9.0,37,0.00,,,0.00,weatherlink.com 1.10,2013-03-28 16:32:00,
2013-03-28 12:47:00,53.2,26.0,30.38,WNW,300,3.0,7.0,35,0.00,,,0.00,weatherlink.com 1.10,2013-03-28 16:47:00,
2013-03-28 13:02:00,54.3,26.0,30.36,West,281,2.0,6.0,33,0.00,,,0.00,weatherlink.com 1.10,2013-03-28 17:02:00,
2013-03-28 13:17:00,55.2,25.0,30.36,WNW,287,5.0,7.0,31,0.00,,,0.00,weatherlink.com 1.10,2013-03-28 17:17:00,
2013-03-28 13:32:00,55.2,26.0,30.36,NNW,335,2.0,5.0,32,0.00,,,0.00,weatherlink.com 1.10,2013-03-28 17:32:00,
2013-03-28 13:47:00,56.0,24.0,30.35,NNW,330,2.0,10.0,29,0.00,,,0.00,weatherlink.com 1.10,2013-03-28 17:47:00,
2013-03-28 14:02:00,56.1,24.0,30.34,WNW,287,5.0,6.0,29,0.00,,,0.00,weatherlink.com 1.10,2013-03-28 18:02:00,
2013-03-28 14:17:00,56.9,26.0,30.33,WNW,299,1.0,6.0,30,0.00,,,0.00,weatherlink.com 1.10,2013-03-28 18:17:00,
2013-03-28 14:32:00,58.4,28.0,30.33,WNW,286,2.0,4.0,31,0.00,,,0.00,weatherlink.com 1.10,2013-03-28 18:32:00,
2013-03-28 14:47:00,57.7,28.0,30.32,NW,314,3.0,5.0,32,0.00,,,0.00,weatherlink.com 1.10,2013-03-28 18:47:00,
2013-03-28 15:02:00,57.7,29.0,30.31,WNW,286,2.0,7.0,33,0.00,,,0.00,weatherlink.com 1.10,2013-03-28 19:02:00,
2013-03-28 15:17:00,59.1,28.0,30.30,WNW,296,3.0,5.0,31,0.00,,,0.00,weatherlink.com 1.10,2013-03-28 19:17:00,
2013-03-28 15:32:00,58.9,29.0,30.30,NW,314,2.0,7.0,32,0.00,,,0.00,weatherlink.com 1.10,2013-03-28 19:32:00,
2013-03-28 15:47:00,60.0,29.0,30.29,NNE,26,3.0,6.0,31,0.00,,,0.00,weatherlink.com 1.10,2013-03-28 19:47:00,
2013-03-28 16:17:00,60.0,28.0,30.28,NNW,327,2.0,6.0,30,0.00,,,0.00,weatherlink.com 1.10,2013-03-28 20:17:00,
2013-03-28 16:32:00,59.8,30.0,30.28,NW,307,1.0,10.0,32,0.00,,,0.00,weatherlink.com 1.10,2013-03-28 20:32:00,
2013-03-28 16:47:00,60.7,30.0,30.27,NNE,23,2.0,4.0,31,0.00,,,0.00,weatherlink.com 1.10,2013-03-28 20:47:00,
2013-03-28 17:02:00,59.9,30.0,30.27,WNW,294,4.0,7.0,32,0.00,,,0.00,weatherlink.com 1.10,2013-03-28 21:02:00,
2013-03-28 17:17:00,60.6,30.0,30.27,NW,314,3.0,8.0,32,0.00,,,0.00,weatherlink.com 1.10,2013-03-28 21:17:00,
2013-03-28 17:32:00,60.2,30.0,30.27,WNW,291,3.0,8.0,32,0.00,,,0.00,weatherlink.com 1.10,2013-03-28 21:32:00,
2013-03-28 17:47:00,59.6,30.0,30.27,West,280,2.0,4.0,33,0.00,,,0.00,weatherlink.com 1.10,2013-03-28 21:47:00,
2013-03-28 18:02:00,59.2,30.0,30.27,West,280,0.0,7.0,33,0.00,,,0.00,weatherlink.com 1.10,2013-03-28 22:02:00,
2013-03-28 18:17:00,59.0,30.0,30.27,NW,305,1.0,6.0,34,0.00,,,0.00,weatherlink.com 1.10,2013-03-28 22:17:00,
2013-03-28 18:32:00,58.7,30.0,30.26,WNW,301,2.0,4.0,34,0.00,,,0.00,weatherlink.com 1.10,2013-03-28 22:32:00,
2013-03-28 18:47:00,58.8,30.0,30.27,NW,325,1.0,3.0,34,0.00,,,0.00,weatherlink.com 1.10,2013-03-28 22:47:00,
2013-03-28 19:02:00,57.9,31.0,30.27,WNW,294,2.0,4.0,36,0.00,,,0.00,weatherlink.com 1.10,2013-03-28 23:02:00,
2013-03-28 19:17:00,57.3,31.0,30.27,NW,319,1.0,4.0,37,0.00,,,0.00,weatherlink.com 1.10,2013-03-28 23:17:00,
2013-03-28 19:32:00,56.3,31.0,30.27,NNW,342,0.0,3.0,38,0.00,,,0.00,weatherlink.com 1.10,2013-03-28 23:32:00,
2013-03-28 19:47:00,55.3,31.0,30.27,North,1,0.0,2.0,40,0.00,,,0.00,weatherlink.com 1.10,2013-03-28 23:47:00,
2013-03-28 20:02:00,54.2,31.0,30.28,NNW,336,0.0,0.0,41,0.00,,,0.00,weatherlink.com 1.10,2013-03-29 00:02:00,
2013-03-28 20:17:00,52.7,31.0,30.29,NNW,337,0.0,0.0,44,0.00,,,0.00,weatherlink.com 1.10,2013-03-29 00:17:00,
2013-03-28 20:32:00,51.5,31.0,30.29,NNW,338,0.0,0.0,45,0.00,,,0.00,weatherlink.com 1.10,2013-03-29 00:32:00,
2013-03-28 20:47:00,50.6,31.0,30.29,NNW,337,0.0,0.0,48,0.00,,,0.00,weatherlink.com 1.10,2013-03-29 00:47:00,
2013-03-28 21:02:00,49.6,31.0,30.29,NNW,337,0.0,0.0,49,0.00,,,0.00,weatherlink.com 1.10,2013-03-29 01:02:00,
2013-03-28 21:17:00,48.1,31.0,30.30,NNW,337,0.0,0.0,52,0.00,,,0.00,weatherlink.com 1.10,2013-03-29 01:17:00,
2013-03-28 21:32:00,47.3,31.0,30.30,NNW,338,0.0,1.0,54,0.00,,,0.00,weatherlink.com 1.10,2013-03-29 01:32:00,
2013-03-28 21:47:00,46.6,31.0,30.30,NNW,338,0.0,0.0,55,0.00,,,0.00,weatherlink.com 1.10,2013-03-29 01:47:00,
2013-03-28 22:02:00,45.3,31.0,30.31,NNW,338,0.0,0.0,58,0.00,,,0.00,weatherlink.com 1.10,2013-03-29 02:02:00,
2013-03-28 22:17:00,45.4,31.0,30.32,NNW,338,0.0,1.0,58,0.00,,,0.00,weatherlink.com 1.10,2013-03-29 02:17:00,
2013-03-28 22:32:00,45.2,31.0,30.32,NNW,337,0.0,0.0,59,0.00,,,0.00,weatherlink.com 1.10,2013-03-29 02:32:00,
2013-03-28 22:47:00,44.8,31.0,30.32,NNW,338,0.0,0.0,59,0.00,,,0.00,weatherlink.com 1.10,2013-03-29 02:47:00,
2013-03-28 23:02:00,44.3,31.0,30.33,NNW,337,0.0,0.0,60,0.00,,,0.00,weatherlink.com 1.10,2013-03-29 03:02:00,
2013-03-28 23:17:00,43.8,31.0,30.33,NNW,338,0.0,0.0,62,0.00,,,0.00,weatherlink.com 1.10,2013-03-29 03:17:00,
2013-03-28 23:32:00,42.8,31.0,30.33,NNW,337,0.0,0.0,63,0.00,,,0.00,weatherlink.com 1.10,2013-03-29 03:32:00,
2013-03-28 23:48:00,42.3,32.0,30.33,ESE,118,0.0,1.0,66,0.00,,,0.00,weatherlink.com 1.10,2013-03-29 03:48:00,